Honolulu, HI

6:06 PM HST on August 21, 2017 (GMT -1000)
Honolulu International

Weather History for PHNL - October, 2013

Change the Weather History Date:

Wednesday, October 2, 2013

  Actual Average Record
Temperature  
Mean Temperature 81 °F 81 °F  
Max Temperature 86 °F 88 °F 91 °F (1980)
Min Temperature 75 °F 74 °F 68 °F (1992)
Degree Days  
Heating Degree Days 0 0  
Month to date heating degree days 0 0  
Since 1 July heating degree days 0 0  
Cooling Degree Days 16 16  
Month to date cooling degree days 31 32  
Year to date cooling degree days 3368 3511  
Growing Degree Days 30 (Base 50)    
Moisture  
Dew Point 67 °F    
Average Humidity 64    
Maximum Humidity 76    
Minimum Humidity 51    
Precipitation  
Precipitation 0.00 in 0.04 in 0.69 in (1970)
Month to date precipitation 0.00 0.08  
Year to date precipitation 10.41 9.68  
Snow  
Snow 0.00 in - - ()
Month to date snowfall 0.0  
Since 1 July snowfall 0.0  
Since 1 September snowfall 0.0  
Snow Depth 0.00 in    
Sea Level Pressure  
Sea Level Pressure 29.96 in    
Wind  
Wind Speed 11 mph (ENE)    
Max Wind Speed 22 mph    
Max Gust Speed 26 mph    
Visibility 10 miles    
Events      
T = Trace of Precipitation, MM = Missing Value Source: NWS Daily Summary

Daily Weather History Graph

Daily Weather History Graph

Search for Another Location

Airport or City:

Trip Planner

Search our weather history database for the weather conditions in past years. The results will help you decide how hot, cold, wet, or windy it might be!

Date:

Astronomy

Oct. 02, 2013 Rise Set
Actual Time 6:23 AM HST 6:18 PM HST
Civil Twilight 6:01 AM HST 6:40 PM HST
Nautical Twilight 5:35 AM HST 7:06 PM HST
Astronomical Twilight 5:09 AM HST 7:31 PM HST
Moon 4:20 AM HST (10/2) 4:51 PM HST (10/2)
Length of Visible Light 12h 39m
Length of Day
11h 54m
Waning Crescent, 5% of the Moon is Illuminated
Oct 2
Waning Crescent
Oct 4
New
Oct 11
First Quarter
Oct 18
Full
Oct 26
Last Quarter

Hourly Weather History & Observations

Time (HST) Temp. Heat Index Dew Point Humidity Pressure Visibility Wind Dir Wind Speed Gust Speed Precip Events Conditions
12:53 AM 77.0 °F - 68.0 °F 74% 29.98 in 10.0 mi NE 6.9 mph - N/A   Mostly Cloudy
1:53 AM 77.0 °F - 69.1 °F 76% 29.97 in 10.0 mi East 8.1 mph - N/A   Mostly Cloudy
2:53 AM 77.0 °F - 66.9 °F 71% 29.96 in 10.0 mi ENE 8.1 mph - N/A   Mostly Cloudy
3:53 AM 77.0 °F - 66.9 °F 71% 29.94 in 10.0 mi ENE 12.7 mph - N/A   Mostly Cloudy
4:53 AM 75.9 °F - 66.0 °F 71% 29.94 in 10.0 mi East 5.8 mph 18.4 mph N/A   Scattered Clouds
5:53 AM 75.9 °F - 66.9 °F 74% 29.96 in 10.0 mi NE 10.4 mph - N/A   Mostly Cloudy
6:53 AM 77.0 °F - 68.0 °F 74% 29.96 in 10.0 mi ENE 9.2 mph - N/A   Mostly Cloudy
7:53 AM 79.0 °F - 66.0 °F 64% 29.98 in 10.0 mi ENE 9.2 mph - N/A   Mostly Cloudy
8:53 AM 81.0 °F 83.3 °F 66.9 °F 62% 29.99 in 10.0 mi ENE 11.5 mph - N/A   Mostly Cloudy
9:53 AM 82.0 °F 83.8 °F 64.9 °F 56% 29.99 in 10.0 mi East 13.8 mph - N/A   Mostly Cloudy
10:53 AM 84.0 °F 85.8 °F 64.9 °F 53% 29.98 in 10.0 mi East 11.5 mph 19.6 mph N/A   Mostly Cloudy
11:53 AM 84.9 °F 87.1 °F 66.0 °F 53% 29.95 in 10.0 mi NE 13.8 mph 20.7 mph N/A   Mostly Cloudy
12:53 PM 86.0 °F 88.8 °F 66.9 °F 53% 29.93 in 10.0 mi ENE 19.6 mph 26.5 mph N/A   Overcast
1:53 PM 84.0 °F 86.3 °F 66.0 °F 55% 29.92 in 10.0 mi NE 15.0 mph 24.2 mph N/A   Overcast
2:53 PM 84.9 °F 87.1 °F 66.0 °F 53% 29.91 in 10.0 mi ENE 17.3 mph 26.5 mph N/A   Overcast
3:53 PM 82.9 °F 85.0 °F 66.0 °F 56% 29.91 in 10.0 mi ENE 17.3 mph - N/A   Mostly Cloudy
4:53 PM 81.0 °F 83.3 °F 66.9 °F 62% 29.91 in 10.0 mi ENE 13.8 mph 23.0 mph N/A   Mostly Cloudy
5:53 PM 79.0 °F - 66.0 °F 64% 29.93 in 10.0 mi ENE 17.3 mph - N/A   Mostly Cloudy
6:53 PM 78.1 °F - 66.9 °F 68% 29.94 in 10.0 mi ENE 13.8 mph - N/A   Mostly Cloudy
7:53 PM 78.1 °F - 66.9 °F 68% 29.95 in 10.0 mi ENE 13.8 mph - N/A   Partly Cloudy
8:53 PM 78.1 °F - 66.9 °F 68% 29.98 in 10.0 mi ENE 9.2 mph - N/A   Partly Cloudy
9:53 PM 77.0 °F - 66.9 °F 71% 29.99 in 10.0 mi ENE 9.2 mph - N/A   Partly Cloudy
10:53 PM 77.0 °F - 68.0 °F 74% 29.98 in 10.0 mi ENE 6.9 mph - N/A   Mostly Cloudy
11:53 PM 77.0 °F - 66.9 °F 71% 29.97 in 10.0 mi ENE 5.8 mph - N/A   Partly Cloudy